CDT,Max TemperatureF,Mean TemperatureF,Min TemperatureF,Max Dew PointF,MeanDew PointF,Min DewpointF,Max Humidity, Mean Humidity, Min Humidity, Max Sea Level PressureIn, Mean Sea Level PressureIn, Min Sea Level PressureIn, Max VisibilityMiles, Mean VisibilityMiles, Min VisibilityMiles, Max Wind SpeedMPH, Mean Wind SpeedMPH, Max Gust SpeedMPH,PrecipitationIn, CloudCover, Events, WindDirDegrees
2012-9-1,77,67,57,52,48,46,72,50,36,30.18,30.11,30.07,10,10,10,13,7,17,0.00,0,,57
2012-9-2,75,63,51,57,54,46,82,69,50,30.07,29.96,29.84,10,10,7,9,3,,0.00,0,,76
2012-9-3,86,72,57,63,55,46,88,59,27,29.90,29.86,29.82,10,10,2,8,2,,0.00,1,,308
2012-9-4,84,68,51,55,51,46,88,61,34,29.88,29.80,29.70,10,10,10,12,2,,0.00,0,Thunderstorm,63
2012-9-5,73,64,55,54,49,45,88,60,38,29.82,29.78,29.73,10,10,10,15,5,24,0.00,2,Rain,277
2012-9-6,73,62,51,52,48,46,82,64,41,29.90,29.87,29.82,10,10,10,12,5,20,0.00,2,Rain,280
2012-9-7,62,56,48,50,47,45,87,73,55,29.95,29.92,29.88,10,10,7,14,3,22,0.00,3,Rain,305
2012-9-8,60,52,44,50,45,39,87,77,63,29.99,29.86,29.75,10,10,7,14,5,24,0.04,2,Rain,294
2012-9-9,68,56,44,48,45,39,87,71,43,30.15,30.09,29.99,10,10,10,8,4,,0.00,1,,306
2012-9-10,75,56,37,52,45,34,87,70,44,30.07,29.93,29.79,10,10,7,17,3,23,0.00,0,,181
2012-9-11,75,62,48,57,52,43,88,72,50,29.80,29.75,29.67,10,10,10,21,2,28,0.00,0,,187
2012-9-12,66,56,46,54,39,34,71,48,32,30.13,30.01,29.78,10,10,10,18,7,28,0.00,1,,257
2012-9-13,66,56,46,39,35,34,66,48,32,30.30,30.22,30.13,10,10,10,13,5,25,0.00,2,,287
2012-9-14,62,52,41,43,39,36,81,62,42,30.34,30.30,30.27,10,10,10,10,3,,0.00,1,,351
2012-9-15,66,50,35,48,41,30,87,68,48,30.28,30.12,29.92,10,10,10,12,5,,0.00,0,,46
2012-9-16,75,58,42,54,45,37,87,60,31,29.92,29.87,29.82,10,10,10,12,3,18,0.00,1,Rain,309
2012-9-17,57,48,39,46,36,30,87,62,38,29.96,29.93,29.88,10,10,10,13,4,21,0.06,4,Rain,329
2012-9-18,55,42,30,34,29,27,86,61,33,29.97,29.93,29.85,10,10,10,13,4,18,0.00,1,,319
2012-9-19,66,49,32,48,40,27,87,70,45,29.85,29.63,29.50,10,10,7,17,5,26,0.02,5,Rain-Thunderstorm,242
2012-9-20,57,50,44,43,40,36,87,72,44,29.82,29.74,29.65,10,9,2,13,7,28,0.01,6,Rain,279
2012-9-21,57,47,37,41,36,32,87,72,41,29.78,29.75,29.71,10,10,4,14,5,26,0.12,4,Rain-Thunderstorm,289
2012-9-22,50,42,33,37,32,27,87,68,46,30.15,30.03,29.76,10,10,10,14,5,25,0.00,5,Rain,327
2012-9-23,55,42,30,34,29,25,86,64,41,30.21,30.15,30.03,10,10,10,10,2,17,0.00,1,,279
2012-9-24,73,53,33,43,33,27,81,49,31,30.03,29.77,29.59,10,10,10,22,9,34,0.00,0,,266
2012-9-25,55,44,32,36,31,27,87,64,44,29.97,29.90,29.84,10,10,10,7,3,,0.00,3,,332
2012-9-26,57,44,30,37,33,27,87,67,41,30.21,30.10,29.97,10,10,10,9,2,,0.00,2,,290
2012-9-27,60,44,28,37,32,23,86,63,39,30.27,30.21,30.15,10,10,10,10,2,16,0.00,0,,216
2012-9-28,69,53,37,41,37,30,81,56,31,30.17,30.12,30.06,10,10,10,10,3,,0.00,0,,255
2012-9-29,64,52,39,45,38,36,87,62,40,30.14,30.09,30.06,10,10,10,14,4,,0.00,0,,43
2012-9-30,62,48,33,45,38,28,87,70,42,30.07,29.99,29.86,10,9,0,8,3,,0.00,1,,49